THOR ABLESTAR R/B, 669

Orbit data source: Space-Track

THOR ABLESTAR R/B, 669 is space debris in LEO originally from a launch on Sat, 28 Sep 1963 UTC launched from the Air Force Western Test Range (AFWTR). Debris objects in space refer to the collection of defunct objects orbiting the Earth. Examples of debris include non-operational satellites, rocket bodies, and fragments generated from explosions, collisions, or faulty payload assembly.

Loading next visibility...
THOR ABLESTAR R/B details
Identifier
669, 1963-038A
Orbit
LEO
Last TLE update20 hours ago
Origin
Flag of USUSAF SSD (US)
ManufacturerAerojet
MissionSpacecraft
Bus & MotorABLESTAR, Unknown motor
Mass~600 kg wet, 600 kg dry
Launch date (UTC)
1963-09-28 (61 years ago)
Launch vehicleUnknown
Launch site
Air Force Western Test Range (AFWTR)
Object type
Payload
Rocket body
Debris
Shape & HBRCyl, 4.8 m
Radar Cross Section6.048 m², Large (>1 m²)

Expand to show TLE details & history

TLE from 20 hours ago
0 THOR ABLESTAR R/B
1 00669U 63038A   24355.80493705  .00000063  00000-0  90649-4 0  9997
2 00669  89.9920 335.0366 0024654 233.9998 173.9359 13.46087432  6607
Epoch: 2024-12-20T19:19Z
Definitive object data (Epoch: 2024-12-20T19:19:06.561Z)
Latitude48.05713°
Longitude-44.59706°
Altitude1,112.562 km
Speed7.292 km/s
True Right ascension22h 20m 10s
True Declination47° 53' 39"
Sunlit
Object was in daylight at TLE epoch
Visualization TLE readout
Latitude86.52677°
Longitude135.26228°
Altitude1,114.229 km
Speed7.295 km/s
Apparent Right ascension02h 31m 23s
Apparent Declination35° 55' 07"
Sunlit
Object is in daylight
Visualization observer readout
Local Sidereal Time14:12:23
Azimuth356.039° N
Elevation-14.039°
Doppler factor1
Orbital elements
Apogee altitude1,102.141 km
Perigee altitude1,065.347 km
Semi-major axis7,461.881 km
Eccentricity0.0024654
Inclination89.992°
RAAN335.0366°
Arg. of periapsis233.9998°
True anomaly173.96565°
Mean anomaly173.9359°
Eccentric anomaly173.95079°
Mean motion3.36721 °/min
BSTAR0.000090649
Orbital period106.91 mins
Loading maneuver chart data...

THOR ABLESTAR R/B Visibility forecast

Observer location: undefined°, undefined

Span
Click to sort rows by Start time (UTC) header in descending order
Start Az.
Max El. time (UTC)
Max El. Az.
Max El.
End time (UTC)
End Az.
10 mins2024-12-21 21:58:09.041Z124.404° SE2024-12-21 22:03:09.041Z72.501° E23.534°2024-12-21 22:08:09.041Z23.246° NE
11 mins2024-12-21 23:44:09.041Z200.655° SSW2024-12-21 23:49:09.041Z266.509° W38.283°2024-12-21 23:55:09.041Z345.745° N
11 mins2024-12-22 10:56:09.041Z7.907° NNE2024-12-22 11:01:09.041Z65.878° ENE43.471°2024-12-22 11:07:09.041Z174.692° S
6 mins2024-12-22 12:45:09.041Z313.227° NW2024-12-22 12:47:09.041Z292.599° NW17.08°2024-12-22 12:51:09.041Z253.229° W
|